Current weather by "City, St" or "zip code"  
 

Current Conditions: Midland, Midland Airpark, TX

Fair


94.0 F

Last Updated on Jul 3 2022, 3:35 pm CDT
Humidity: 25%
Wind Speed: E 10.4 G 23.0 mph
Barometer 30.00 in
Dewpoint: 53.2 F
Visibility: 10.00 mi
Precip: --
Heat Index: 92 F
Wind Chill: NA
Current conditions at:

Midland, Midland Airpark, TX (KMDD)

Lat: 32.03639 Lon: 102.10083

Local Radar Image active severe weather and emergency alerts image image weather storm and storm spotter reports image weather observation monitoring service image
Local
Radar
Active
Alerts
Storm Reports Obs
Monitoring

Sign-up For Email & Text Message Weather Alert Notification Services



Advertise Here

Observation History for Midland, Midland Airpark, TX


Time Wind
(mph)
Vis
(mi)
Weather Precip (in) Temperature (F) Relative
Humidity
Wind
Chill
(F)
Heat
Index
(F)
Pressure
Air Dwpt altimeter
(in)
sea level
(mb)
Rmks
3:35 pm CDT E 10.4 G 23.0 10.00 Fair -- 94.0 53.2 25% NA 92 30.00 M
3:15 pm CDT S 21.9 G 27.6 10.00 Fair and Breezy -- 94.0 54.3 27% NA 92 30.01 M
2:55 pm CDT SE 11.5 G 21.9 10.00 Partly Cloudy -- 93.0 54.1 27% NA 91 30.02 M
1:55 pm CDT S 10.4 G 20.7 10.00 Partly Cloudy -- 91.0 55.6 30% NA 89 30.03 M
1:35 pm CDT SE 13.8 G 21.9 10.00 Fair -- 93.0 56.3 29% NA 91 30.05 M
1:15 pm CDT S 13.8 G 21.9 10.00 Fair -- 91.0 57.4 32% NA 90 30.05 M
12:55 pm CDT SE 15.0 10.00 Fair -- 91.0 58.8 34% NA 90 30.06 M
12:35 pm CDT S 15.0 G 19.6 10.00 Fair -- 89.0 60.3 38% NA 89 30.07 M
12:15 pm CDT SE 16.1 10.00 Fair -- 89.0 61.0 39% NA 89 30.07 M
11:55 am CDT S 16.1 10.00 Fair -- 87.0 61.5 42% NA 87 30.07 M
11:35 am CDT S 16.1 G 23.0 10.00 Fair -- 87.0 63.0 45% NA 88 30.07 M
11:15 am CDT S 15.0 10.00 Fair -- 85.0 64.0 50% NA 86 30.07 M
10:55 am CDT SE 18.4 10.00 Fair -- 84.0 64.8 52% NA 86 30.07 M
10:35 am CDT S 20.7 G 26.5 10.00 Fair and Breezy -- 83.0 64.6 54% NA 85 30.07 M
10:15 am CDT S 15.0 G 19.6 10.00 Fair -- 81.0 64.0 56% NA 82 30.07 M
9:55 am CDT S 16.1 10.00 Fair -- 80.0 63.5 56% NA 81 30.07 M
9:35 am CDT S 15.0 G 20.7 10.00 Fair -- 80.0 63.1 57% NA 82 30.06 M
9:15 am CDT S 13.8 10.00 Fair -- 78.0 62.6 59% NA NA 30.06 M
8:55 am CDT S 13.8 10.00 Fair -- 77.0 62.2 60% NA NA 30.06 M
8:35 am CDT S 11.5 10.00 Fair -- 77.0 61.7 60% NA NA 30.06 M
8:15 am CDT S 13.8 10.00 Fair -- 76.0 61.3 61% NA NA 30.06 M
7:55 am CDT S 11.5 10.00 Fair -- 75.0 61.0 63% NA NA 30.06 M
7:35 am CDT S 10.4 10.00 Partly Cloudy -- 74.0 60.8 63% NA NA 30.05 M
7:15 am CDT S 11.5 10.00 Overcast -- 74.0 60.4 62% NA NA 30.05 M

Regional Weather Observation


Andrews County Airport, TX (KE11)

Fair
94.0 F

Seminole, Gaines County Airport, TX (KGNC)

Fair
94.0 F

Midland, Midland International Airport, TX (KMAF)

Fair
92.0 F

Odessa, Odessa-Schlemeyer Field, TX (KODO)

A Few Clouds
93.0 F

Lamesa Municipal Airport, TX (KLUV)

Fair and Breezy
93.0 F

Big Spring, Big Spring McMahon-Wrinkle Airport, TX (KBPG)

Partly Cloudy
94.0 F

Advertise Here


Advertise Here